This is the latest recevied weather packets stored in our database for station/object SA3PJN-WX. If no packets are shown the sender has not sent any weather packets the latest 10 day(s).
| Time | Temp. | Humidity | Pressure | Rain* | Wind** | Luminosity | Snow |
|---|---|---|---|---|---|---|---|
| 1778245426 | 14.44° C | 30% | 977 hPa | - | - | - | - |
| 1778245126 | 14.44° C | 30% | 977 hPa | - | - | - | - |
| 1778244796 | 13.89° C | 29% | 977 hPa | - | - | - | - |
| 1778244496 | 14.44° C | 30% | 977 hPa | - | - | - | - |
| 1778244196 | 14.44° C | 30% | 977 hPa | - | - | - | - |
| 1778243896 | 13.89° C | 27% | 977 hPa | - | - | - | - |
| 1778243596 | 14.44° C | 26% | 977 hPa | - | - | - | - |
| 1778243296 | 14.44° C | 26% | 977 hPa | - | - | - | - |
| 1778242996 | 15° C | 28% | 977 hPa | - | - | - | - |
| 1778242696 | 14.44° C | 29% | 977 hPa | - | - | - | - |
| 1778242396 | 14.44° C | 29% | 977 hPa | - | - | - | - |
| 1778242096 | 13.89° C | 29% | 977 hPa | - | - | - | - |
| 1778241767 | 13.33° C | 33% | 977 hPa | - | - | - | - |
| 1778241466 | 13.89° C | 32% | 977 hPa | - | - | - | - |
| 1778241166 | 13.33° C | 32% | 977 hPa | - | - | - | - |
| 1778240866 | 12.78° C | 32% | 977 hPa | - | - | - | - |
| 1778240536 | 13.33° C | 31% | 977 hPa | - | - | - | - |
| 1778240236 | 14.44° C | 32% | 977 hPa | - | - | - | - |
| 1778239936 | 13.89° C | 33% | 977 hPa | - | - | - | - |
| 1778239636 | 13.89° C | 30% | 977 hPa | - | - | - | - |
| 1778239336 | 14.44° C | 30% | 977 hPa | - | - | - | - |
| 1778239036 | 14.44° C | 30% | 977 hPa | - | - | - | - |
| 1778238706 | 13.89° C | 30% | 977 hPa | - | - | - | - |
| 1778238406 | 14.44° C | 30% | 977 hPa | - | - | - | - |
| 1778238106 | 13.89° C | 28% | 977.1 hPa | - | - | - | - |
* Rain since midnight (hover to see other rain measurements)
** Current wind speed in m/s (hover to see current wind gust speed)